Location: Navajo
(48.7922°N, 105.0603°W)
Time: 07:49:46
(UTC+00:00)

ISS - Visible Passes

Search period start: 24 January 2022 00:00
Search period end: 03 February 2022 00:00
Orbit: 413 x 422 km, 51.6° (Epoch: 24 January)

Date Brightness Start Highest point End Pass type
(mag) Time Alt. Az. Time Alt. Az. Time Alt. Az.
24 Jan -3.1 00:11:47 10° SW 00:14:58 45° SSE 00:18:11 10° ENE visible
24 Jan -3.4 01:48:25 10° W 01:51:34 58° NNW 01:51:34 58° NNW visible
25 Jan -3.7 01:00:20 10° WSW 01:03:40 72° NNW 01:05:32 24° ENE visible
25 Jan -1.0 02:37:25 10° WNW 02:38:27 18° WNW 02:38:27 18° WNW visible
26 Jan -3.2 01:49:19 10° WNW 01:52:24 48° NNW 01:52:24 48° NNW visible
27 Jan -3.4 01:01:12 10° W 01:04:28 52° N 01:06:20 22° ENE visible
27 Jan -1.0 02:38:11 10° WNW 02:39:15 19° WNW 02:39:15 19° WNW visible
28 Jan -3.4 01:50:06 10° WNW 01:53:11 53° N 01:53:11 53° N visible
29 Jan -3.4 01:02:00 10° WNW 01:05:16 50° N 01:07:09 22° ENE visible
29 Jan -1.2 02:38:51 10° WNW 02:40:05 21° WNW 02:40:05 21° WNW visible
30 Jan -3.9 01:50:46 10° WNW 01:54:04 77° N 01:54:04 77° N visible
31 Jan -3.7 01:02:41 10° WNW 01:06:00 62° NNE 01:08:06 20° E visible
31 Jan -1.3 02:39:33 10° WNW 02:41:03 22° W 02:41:03 22° W visible
01 Feb -3.4 01:51:23 10° WNW 01:54:40 58° SSW 01:55:10 51° SSE visible
02 Feb -3.8 01:03:14 10° WNW 01:06:36 83° SSW 01:09:23 14° ESE visible
02 Feb -1.1 02:40:34 10° W 02:42:20 18° WSW 02:42:20 18° WSW visible
